User: anonymous   Login
Location: Balaclava NSW 2575, Australia
(34.4510°S, 150.4953°E)
Time: 01:21:47
(UTC+10:00)
Language:

XW-2D - Orbit

View from above orbital plane
View from above orbital plane
View from above satellite
View from above satellite

Ground track
Ground track

The orbit data is extracted from the following two-line orbital elements,

1 40907U 15049J   21215.46142363  .00001335  00000-0  70477-4 0  9990
2 40907  97.4856 217.0401 0014689  27.1377 127.9104 15.17185901324721
Epoch (UTC): 03 August 2021 11:04:27
Eccentricity: 0.0014689
inclination: 97.4856°
perigee height: 504 km
apogee height: 524 km
right ascension of ascending node: 217.0401°
argument of perigee: 27.1377°
revolutions per day: 15.17185901
mean anomaly at epoch: 127.9104°
orbit number at epoch: 32472

The dashed part of the orbit path shows where the satellite is in the earth's shadow,  

DLR